Find Starlink 32224

NORAD ID: 60941 Int'l Des: 2024-155 Owner: SPXS Country: US Constellation: starlink operational
LEOCIRCULAR

現在のビュー

3D地球を読み込み中...

About Starlink 32224

Starlink 32224 (NORAD 60941) is a starlink constellation satellite (v2 mini) launched Aug 31, 2024 by SPXS of US. It operates in LEO, CIRCULAR orbit with a mass of 730.00 kg.

Starlink 32224について

説明を読み込み中...

次回通過

Passes for default location (London). Set your location on the main map for personalized predictions.

高度履歴

Loading altitude history...

軌道要素

1 60941U 24155T 26193.56750978 .00002489 00000-0 84799-4 0 9999
2 60941 53.1606 268.6747 0000950 99.1990 260.9121 15.34392270105489
Epoch: Jul 12, 2026 • Age: 8 hours

現在のステータス

高度 480.6 km
遠地点 / 近地点 N/A
速度 7.62 km/s
衛星直下点 -49.91°S, 42.64°W
打ち上げ日 Aug 31, 2024
運用期間 1.8 years
タイプ internet

技術仕様

分類 Payload
質量 730.00 kg
乾燥質量 700.00 kg
総質量 730.00 kg
長さ 0.30 m
直径 4.10 m
スパン 29.00 m
形状 Box + pan
製造者 SPXS
バスタイプ Starlink V2M
フェーズステータス In Orbit
所有者/国 SPXS/US

Most Searched